Terminal Aerodrome Forecast
Issued by NWS Twin Cities, MN

Home | Current Version | Previous Version | Graphics & Text | Print | Product List | Glossary On
Versions: 1 2 3 4 5 6 7 8 9 10 11 12 13 14 15 16 17 18 19 20 21 22 23 24 25 26 27 28
000
FTUS43 KMPX 010849 AAA
TAFMSP
TAF AMD
KMSP 010849Z 0109/0212 17007KT P6SM FEW100
     FM011100 16006KT P6SM BKN100
     FM011400 17009KT P6SM -RA SCT050 BKN080
     FM011600 19008KT P6SM BKN080
     FM012000 22008KT P6SM SCT080
     FM020000 15005KT P6SM SKC=

USA.gov is the U.S. government's official web portal to all federal, state and local government web resources and services.